Regional Weather Roundup
Issued by NWS

Home | Current Version | Previous Version | Text Only | Print | Product List | Glossary On
Versions: 1 2 3 4 5 6 7 8 9 10 11 12 13 14 15 16 17 18 19 20 21 22 23 24 25 26 27 28 29 30 31 32 33 34 35 36 37 38 39 40 41 42 43 44 45 46 47 48 49 50
675
ASUS43 KDTX 160910
RWRMI
MICHIGAN HOURLY REGIONAL WEATHER ROUNDUP
NATIONAL WEATHER SERVICE DETROIT/PONTIAC MI
400 AM EST SAT DEC 16 2017

NOTE: "FAIR" INDICATES FEW OR NO CLOUDS BELOW 12,000 FEET WITH NO
SIGNIFICANT WEATHER AND/OR OBSTRUCTION TO VISIBILITY.

MIZ047>049-052>055-059>063-066>070-074>076-081>083-161000-
SOUTHEAST LOWER MICHIGAN

CITY           SKY/WX    TMP DP  RH WIND       PRES   REMARKS
ALMA           LGT SNOW  23  22  98 CALM      29.87F
ANN ARBOR      FLURRIES  28  25  88 S12       29.89F WCI  18
BAD AXE        CLOUDY    21  15  78 SW6       29.87S WCI  14
CARO           LGT SNOW  22  19  89 SW5       29.87F WCI  16
DETROIT CITY   LGT SNOW  29  25  85 SW15      29.90F FOG     WCI  18
DETROIT        LGT SNOW  31  25  78 SW15      29.91F WCI  20
FLINT          LGT SNOW  22  21  96 S5        29.88F FOG     WCI  16
GROSSE ILE     FLURRIES  30  25  81 SW10G17   29.91F WCI  21
HILLSDALE      CLOUDY    30  21  69 SW6       29.87F WCI  24
HOWELL         LGT SNOW  28  28  96 SW7       29.86S WCI  21

CITY           SKY/WX    TMP DP  RH WIND       PRES   REMARKS
JACKSON        CLOUDY    32  23  69 SW15      29.87F WCI  22
LAMBERTVILLE   CLOUDY    31  23  70 SW10G17   29.93F WCI  23
LANSING        LGT SNOW  25  24  96 E3        29.87S FOG
LAPEER         LGT SNOW  23  22  96 CALM      29.88S
MASON          CLOUDY    30  25  81 SW7       29.86F WCI  23
MONROE         CLOUDY    31  22  71 SW9       29.91F WCI  23
MT. CLEMENS    LGT SNOW  25  25 100 CALM      29.88F FOG
PONTIAC        LGT SNOW  24  22  91 NE3       29.86S FOG
PORT HOPE        N/A     21  14  74 SW6       29.86R WCI  13
PORT HURON     LGT SNOW  23  19  86 CALM      29.90F
TRI CITIES     LGT SNOW  21  19  92 S3        29.89R FOG
MIDLAND        LGT SNOW  21  18  86 CALM      29.88S
TROY           LGT SNOW  28  26  90 SW5       29.90F WCI  23
SAGINAW HB     LGT SNOW  23  21  93 CALM      29.88F
$$
MIZ043>046-050>051-056>058-064>065-071>073-077>080-161000-
SOUTHWEST LOWER MICHIGAN

CITY           SKY/WX    TMP DP  RH WIND       PRES   REMARKS
BATTLE CREEK   CLOUDY    31  24  75 SW12      29.86F WCI  22
BENTON HARBOR  CLOUDY    38  26  62 SW17      29.87F WCI  28
BIG RAPIDS     LGT SNOW  18  16  92 CALM      29.83F
COLDWATER      CLOUDY    32  23  69 SW12      29.88F WCI  23
HOLLAND        LGT RAIN  36  31  82 W9G20     29.84F WCI  29
GRAND RAPIDS   LGT SNOW  26  24  92 E5        29.84F VSB 1   WCI  20
IONIA          LGT SNOW  25  24  96 E3        29.85S
KALAMAZOO      CLOUDY    33  23  66 SW7       29.87F WCI  27
LUDINGTON      LGT SNOW  22  20  92 E3        29.85R
MARSHALL       CLOUDY    30  23  74 SW10      29.86F WCI  21
MOUNT PLEASANT LGT SNOW  21  18  85 CALM      29.86S
MUSKEGON       LGT SNOW  27  23  85 NE5       29.85S VSB 1   WCI  22
SOUTH HAVEN    CLOUDY    39  28  64 SW16G22   29.85S WCI  30
$$
MIZ016>042-161000-
NORTHERN LOWER MICHIGAN

CITY           SKY/WX    TMP DP  RH WIND       PRES   REMARKS
ALPENA         CLOUDY    19  13  77 W3        29.85R
BEAVER ISLAND  CLOUDY    18  12  78 NE3       29.87R
BELLAIRE       CLOUDY    21  16  82 CALM      29.86R
CADILLAC       CLOUDY    18  13  82 CALM      29.81S
CHARLEVOIX     MOCLDY    22  13  67 NW9       29.88R WCI  12
FRANKFORT      MOCLDY    21  16  79 CALM      29.86R
GAYLORD        CLOUDY    17  13  84 NE5       29.80R WCI  10
GRAYLING       FLURRIES  17  12  81 CALM      29.83R
HARBOR SPRINGS FLURRIES  17  13  81 NE5       29.85R WCI  10
HOUGHTON LAKE  CLOUDY    18  13  80 SW3       29.83R
MANISTEE       FLURRIES  20  15  81 E5        29.85R WCI  13
OSCODA         CLOUDY    11   7  82 W5        29.87R WCI   3
PELLSTON       CLOUDY    15  11  83 N5        29.86S WCI   8
ROGERS CITY    LGT SNOW  18  14  83 N9G16     29.87R WCI   7
TRAVERSE CITY  CLOUDY    21  14  74 SW5       29.85R WCI  15
$$
MIZ007>008-015-161000-
EASTERN UPPER MICHIGAN

CITY           SKY/WX    TMP DP  RH WIND       PRES   REMARKS
KINROSS        CLOUDY     4   0  83 NE12      29.87R WCI -12
MACKINAC ISLAN MOCLDY    12   6  78 NE9       29.86R WCI  -1
NEWBERRY       CLOUDY    10   9  94 NE3       29.86R
S. S. MARIE    CLOUDY     4  -4  69 NE5       29.88R WCI  -5
MUNISING         N/A     12  10  92 S7        29.86R WCI   1
$$
MIZ004>006-011>014-085-161000-
CENTRAL UPPER MICHIGAN

CITY           SKY/WX    TMP DP  RH WIND       PRES   REMARKS
MANISTIQUE     CLOUDY     2  -2  81 N6        29.87R WCI  -9
ESCANABA       CLOUDY    12   5  73 NW3       29.88R
MENOMINEE      CLOUDY    13   6  74 N3        29.89R
SAWYER-GWINN   PTCLDY     3   0  87 CALM      29.83R
$$
MIZ001>003-009>011-084-161000-
WESTERN UPPER MICHIGAN

CITY           SKY/WX    TMP DP  RH WIND       PRES   REMARKS
IRON MOUNTAIN  CLOUDY    10   5  80 CALM      29.82R
HOUGHTON       CLOUDY     4  -1  80 NE6       29.83R WCI  -7
COPPER HARBOR    N/A     19  13  77 E12G18    29.88R WCI   7
IRONWOOD       CLOUDY    12   7  80 SE5       29.81R WCI   4
$$

ABBREVIATIONS USED IN REMARKS
   TC - TEMPERATURE IN CELSIUS
  WCI - WIND CHILL INDEX
   HX - HEAT INDEX
  VSB - VISIBILITY





USA.gov is the U.S. government's official web portal to all federal, state and local government web resources and services.